Flag for United Kingdom Weather past 2 weeks in Worcester, England, United Kingdom

Now
67 °F

Mild.


Feels Like: 67 °F
Forecast: 55 / 68 °F
Wind: 8 mph from Southwest

Location: Pershore

Current Time: Sep 30, 2014 at 3:11:23 PM

Latest Report: Sep 30, 2014 at 2:00 PM


Visibility: 11 mi

Pressure: 30.21 "Hg

Humidity: 68%

Dew point: 56 °F

Location of WorcesterLocation

Historic Weather in Worcester — Graph

°F

Worcester temperature yesterday

Maximum temperature yesterday: 67 °F (at 2:00 PM)
Minimum temperature yesterday: 51 °F (at 7:00 AM)
Average temperature yesterday: 60 °F

Past Weeks' High & Low Weather Summary

 TemperatureHumidityPressure
High73 °F (Sep 18, 4:00 PM)100% (Sep 16, 9:00 AM)30.38 "Hg (Sep 16, 9:00 AM)
Low37 °F (Sep 22, 7:00 AM)48% (Sep 24, 3:00 PM)29.81 "Hg (Sep 18, 4:00 PM)
Average59 °F85%30.10 "Hg
* Reported Sep 15 1:00 PM — Sep 30 1:00 PM, Worcester, Weather by CustomWeather, © 2014

Note: Actual official high and low records may vary slightly from our data, if they occured in-between our weather recording intervals... More about our weather records

Advertising

Worcester weather history for previous 24 hours

 ConditionsComfort  
Time TempWeatherWind HumidityBarometerVisibility
1:00 PM
Sep 30
65 °FMild.8 mph74%30.23 "Hg11 mi
12:00 PM64 °FMild.8 mph76%30.23 "Hg11 mi
11:00 AM63 °FMild.8 mph79%30.22 "Hg14 mi
10:00 AM60 °FCool.9 mph89%30.22 "Hg8 mi
9:00 AM57 °FFog.7 mph100%30.21 "Hg2 mi
8:00 AM55 °FCool.2 mph100%30.20 "Hg1 mi
7:00 AM51 °FDuststorm.No wind100%30.19 "Hg0 mi
6:00 AM52 °FDuststorm.2 mph99%30.18 "Hg0 mi
5:00 AM53 °FDuststorm.3 mph99%30.17 "Hg1 mi
4:00 AM54 °FCool.3 mph99%30.17 "Hg1 mi
3:00 AM54 °FFog.2 mph98%30.17 "Hg1 mi
2:00 AM55 °FCool.5 mph98%30.16 "Hg2 mi
1:00 AM56 °FFog.3 mph98%30.16 "Hg1 mi
12:00 AM57 °FFog.5 mph98%30.15 "Hg1 mi
11:00 PM
Sep 29
59 °FFog.6 mph98%30.15 "Hg1 mi
10:00 PM59 °FFog.6 mph94%30.14 "Hg2 mi
9:00 PM60 °FSmoke.5 mph93%30.12 "Hg3 mi
8:00 PM61 °FSmoke.3 mph90%30.12 "Hg4 mi
7:00 PM62 °FSmoke.5 mph86%30.11 "Hg6 mi
6:00 PM64 °FSmoke.9 mph82%30.11 "Hg6 mi
5:00 PM65 °FSmoke.10 mph80%30.10 "Hg5 mi
4:00 PM66 °FMild.8 mph80%30.10 "Hg6 mi
3:00 PM67 °FMild.5 mph75%30.10 "Hg10 mi
Weather by CustomWeather, © 2014

See weather overviewHow to use our weather pages